{"data":{"norad_id":52855,"epoch":"2026-05-24T23:55:43.004928Z","epoch_age_seconds":89400,"freshness":"FRESH","line1":"1 52855U 22062AB  26144.99702552 -.00001091  00000+0 -50447-4 0  9999","line2":"2 52855  53.2135  41.5617 0001896  92.1003 268.0207 15.08843735217446","mean_motion":15.08843735,"eccentricity":0.0001896,"inclination_deg":53.2135,"raan_deg":41.5617,"arg_perigee_deg":92.1003,"mean_anomaly_deg":268.0207,"bstar":-5.0447e-5,"rev_number":21744,"period_min":95.437318431123,"perigee_km":538.42034462966,"apogee_km":541.04360054406,"semimajor_km":6917.8689725869,"source":"CELESTRAK","updated_at":"2026-05-25T13:38:17.246064Z"}}